Probability
0 0 0 0 0 1 0 0 0 0 0 0 0 0 0 0 1 1 1 0 1 2 3 1 0 1 0 0 0 0 0 0 0 0 0 0 0 0 0 0 0 0 0
0 0 0 0 0 1 0 0 0 0 0 0 0 0 0 0 0 0 0 0 0 1 1 0 0 1 0 0 0 0 0 0 0 0 0 0 0 0 0 0 0 0 0
0 0 0 0 0 0 0 0 0 0 1 1 0 0 0 0 0 0 0 0 0 0 0 0 0 0 0 0 0 0 0 0 0 0 0 0 0 0 0 0 0 0 0
0 0 0 0 0 0 0 0 0 0 1 1 0 0 0 0 0 0 0 0 0 0 0 0 0 0 0 0 0 0 0 0 0 0 0 0 0 0 0 0 0 0 0
0 0 0 0 0 0 0 0 0 0 0 0 0 0 0 0 0 0 0 0 0 0 0 0 0 0 0 0 0 0 0 0 0 0 0 0 0 0 0 0 0 0 0
0 0 0 0 0 0 0 0 0 0 0 0 0 0 0 0 0 0 0 0 0 0 0 0 0 0 0 0 0 0 0 0 0 0 0 0 0 0 0 0 0 0 0
0 0 0 0 0 0 0 0 0 0 0 0 0 0 0 0 0 0 0 0 0 0 0 0 0 0 0 0 0 0 0 0 0 0 0 0 0 0 0 0 0 0 0
0 0 0 0 0 0 0 0 0 0 0 0 0 0 0 0 0 0 0 0 0 0 0 0 0 0 0 0 0 0 0 0 0 0 0 0 0 0 0 0 0 0 0
0 0 0 0 0 0 0 0 0 0 0 0 0 0 0 0 0 0 0 0 0 0 0 0 0 0 0 0 0 0 0 0 0 0 0 0 0 0 0 0 0 0 0
0 0 0 0 0 0 0 0 0 0 0 0 0 0 0 0 0 0 0 0 0 0 0 0 0 0 0 0 0 0 0 0 0 0 0 0 0 0 0 0 0 0 0
0 0 0 0 0 0 0 0 0 0 0 0 0 0 0 0 0 0 0 0 0 0 0 0 0 0 0 0 0 0 0 0 0 0 0 0 0 0 0 0 0 0 0
0 0 0 0 0 0 0 0 0 0 0 0 0 0 0 0 0 0 0 0 0 0 0 0 0 0 0 0 0 0 0 0 0 0 0 0 0 0 0 0 0 0 0
0 0 0 0 0 0 0 0 0 0 0 0 0 0 0 0 0 0 0 0 0 0 0 0 0 0 0 0 0 0 0 0 0 0 0 0 0 0 0 0 0 0 0
0 0 0 0 0 0 0 0 0 0 0 0 0 0 0 0 0 0 0 0 0 0 0 0 0 0 0 0 0 0 0 0 0 0 0 0 0 0 0 0 0 0 0
0 0 0 0 0 0 0 0 0 0 0 0 0 0 0 0 0 0 0 0 0 0 0 0 0 0 0 0 0 0 0 0 0 0 0 0 0 0 0 0 0 0 0
0 0 0 0 0 0 0 0 0 0 0 0 0 0 0 0 0 0 0 0 0 0 0 0 0 0 0 0 0 0 0 0 0 0 0 0 0 0 0 0 0 0 0
0 0 0 0 0 0 0 0 0 0 0 0 0 0 0 0 0 0 0 0 0 0 0 0 0 0 0 0 0 0 0 0 0 0 0 0 0 0 0 0 0 0 0
0 0 0 0 0 0 0 0 0 0 0 0 0 0 0 0 0 0 0 0 0 0 0 0 0 0 0 0 0 0 0 0 0 0 0 0 0 0 0 0 0 0 0
0 0 0 0 0 0 0 0 0 0 0 0 0 0 0 0 0 0 0 0 0 0 0 0 0 0 0 0 0 0 0 0 0 0 0 0 0 0 0 0 0 0 0
0 0 0 0 0 0 0 0 0 0 0 0 0 0 0 0 0 0 0 0 0 0 0 0 0 0 0 0 0 0 0 0 0 0 0 0 0 0 0 0 0 0 0
0 0 0 0 0 0 0 0 0 0 0 0 0 0 0 0 0 0 0 0 0 0 0 0 0 0 0 0 0 0 0 0 0 0 0 0 0 0 0 0 0 0 0
0 0 0 0 0 0 0 0 0 0 0 0 0 0 0 0 0 0 0 0 0 0 0 0 0 0 0 0 0 0 0 0 0 0 0 0 0 0 0 0 0 0 0
0 0 0 0 0 0 0 0 0 0 0 0 0 0 0 0 0 0 0 0 0 0 0 0 0 0 0 0 0 0 0 0 0 0 0 0 0 0 0 0 0 0 0
0 0 0 0 0 0 0 0 0 0 0 0 0 0 0 0 0 0 0 0 0 0 0 0 0 0 0 0 0 0 0 0 0 0 0 0 0 0 0 0 0 0 0
0 0 0 0 0 0 0 0 0 0 0 0 0 0 0 0 0 0 0 0 0 0 0 0 0 0 0 0 0 0 0 0 0 0 0 0 0 0 0 0 0 0 0
0 0 0 0 0 0 0 0 0 0 0 0 0 0 0 0 0 0 0 0 0 0 0 0 0 0 0 0 0 0 0 0 0 0 0 0 0 0 0 0 0 0 0
Wind_Speed
3 2 2 2 2 2 2 2 3 3 3 3 3 3 4 4 4 5 5 6 7 7 7 8 9 8 6 6 6 6 7 7 10 7 5 4 5 5 4 5 5 5 5
3 3 2 3 3 2 2 2 2 3 3 3 2 3 3 4 4 4 5 6 7 8 8 8 8 6 8 7 6 7 7 7 8 9 6 4 5 5 5 5 5 4 5
4 3 3 3 3 3 3 3 3 3 3 3 2 3 3 3 4 4 5 5 6 7 7 8 8 8 8 7 7 7 6 6 7 7 7 4 3 3 5 5 5 5 5
3 3 3 3 3 3 3 4 3 3 3 3 3 3 3 3 4 4 4 5 6 6 6 7 8 8 9 8 7 8 6 6 6 7 6 4 4 3 3 4 4 4 5
4 4 4 4 4 3 3 3 4 4 3 3 3 3 3 3 3 4 4 5 6 6 6 6 7 7 8 7 6 7 6 6 6 6 6 5 4 3 3 3 5 5 5
4 4 4 4 4 4 4 4 4 4 4 3 3 4 4 3 5 6 5 5 5 6 6 6 6 5 6 8 9 9 8 8 8 7 7 7 7 5 4 4 4 4 5
4 5 5 4 4 5 5 5 4 5 5 4 4 4 5 6 7 7 6 6 6 6 6 5 5 4 5 5 6 8 8 9 10 8 9 9 7 5 4 5 5 5 6
5 5 5 5 5 5 5 5 5 5 4 5 5 5 5 6 7 7 7 6 6 6 6 6 5 6 5 5 5 5 6 6 7 7 8 7 6 4 5 5 5 5 4
5 5 5 5 5 5 5 5 5 5 5 5 5 6 6 7 7 7 6 5 5 6 6 5 6 6 6 5 5 5 5 4 4 5 5 5 5 5 4 2 3 3 4
6 6 6 5 5 6 6 6 5 5 5 5 6 6 6 7 7 7 7 4 5 5 5 5 5 6 6 6 5 5 6 5 3 2 2 2 3 3 4 4 4 4 3
6 6 6 6 6 6 6 5 5 5 5 5 6 6 6 7 7 8 8 5 5 5 5 5 4 6 7 7 6 5 6 4 3 3 2 2 2 2 1 1 2 3 3
6 6 6 6 5 5 5 5 5 5 5 5 5 6 5 5 6 7 8 8 7 6 6 4 4 6 7 7 5 5 5 3 2 2 2 2 2 2 1 1 2 2 2
6 6 6 6 5 5 5 5 5 4 4 5 4 5 5 5 5 7 7 8 8 6 5 6 7 6 6 5 4 4 3 2 3 3 3 3 2 1 1 1 1 1 2
6 6 6 5 5 5 4 4 4 4 4 5 5 5 6 6 5 4 4 4 5 5 4 4 5 6 5 4 3 3 2 2 3 3 3 2 1 1 1 1 1 1 1
6 5 5 5 5 5 4 4 5 5 6 6 6 6 6 7 7 9 7 5 5 5 4 3 3 3 3 3 2 2 2 2 2 2 2 2 2 2 2 1 1 1 2
5 5 4 4 4 4 5 5 7 8 9 10 10 9 8 10 12 12 11 11 10 7 4 4 4 4 4 3 3 2 2 2 2 2 2 2 2 2 2 1 1 2 2
5 5 5 4 4 4 4 5 6 6 7 9 9 10 10 11 12 12 11 10 8 6 4 4 4 4 4 3 3 3 3 2 2 2 2 2 2 2 2 2 2 2 2
6 5 5 5 4 5 5 5 5 5 6 6 7 10 10 11 11 11 9 6 4 4 4 4 4 3 3 3 3 3 2 2 2 2 2 2 2 2 2 3 2 2 2
5 4 4 4 4 4 4 5 5 5 5 6 5 6 7 9 9 8 6 4 4 4 3 4 3 3 3 3 3 3 3 3 3 3 3 3 2 3 3 3 2 3 2
5 6 5 4 4 4 4 4 4 4 4 4 5 5 5 4 4 4 3 3 3 3 3 3 3 3 3 3 3 3 3 3 3 3 3 2 2 3 3 3 3 2 2
4 4 5 4 4 4 4 4 4 4 4 4 5 5 7 5 4 4 4 3 3 3 3 3 3 3 3 2 2 3 4 3 3 3 3 2 2 2 2 3 3 2 2
4 4 3 3 3 3 4 4 4 4 5 5 5 5 7 4 4 4 4 4 3 3 3 3 3 3 3 3 3 3 3 4 3 3 3 2 2 3 3 2 2 2 2
4 4 3 3 3 4 4 4 4 4 4 5 5 4 4 4 4 4 4 4 3 3 3 3 3 3 3 3 3 4 4 4 4 3 3 3 3 3 3 3 3 3 3
3 3 3 3 3 3 4 4 4 4 5 5 4 4 4 4 4 4 4 4 3 3 3 3 3 5 5 4 4 4 4 4 3 3 5 4 4 3 3 3 3 4 3
3 3 3 3 3 4 4 4 4 4 4 4 4 4 4 4 4 4 4 3 4 4 4 4 4 4 5 6 5 5 6 6 5 4 4 4 5 5 4 4 4 3 4
3 3 3 3 3 3 4 4 4 4 4 4 4 4 4 4 4 4 4 4 4 4 5 4 5 6 7 6 7 7 7 8 7 7 5 4 5 5 5 4 5 4 4
Wind_Direction
312 301 295 290 293 279 272 273 278 281 280 276 277 277 270 271 266 252 244 238 237 239 238 238 239 236 235 233 234 237 240 243 257 265 261 252 246 250 254 257 262 264 263
329 321 319 325 326 315 301 302 300 294 294 290 291 287 284 276 271 269 262 250 245 244 242 241 243 240 239 237 236 238 240 242 252 263 260 251 253 257 262 264 266 267 271
337 333 335 338 333 324 322 318 317 315 312 310 300 291 288 287 283 276 273 269 258 253 249 245 244 242 243 243 242 242 243 245 248 256 262 257 259 260 266 270 272 273 276
334 333 335 332 324 320 322 325 319 314 308 307 302 292 290 289 285 290 286 280 278 272 264 257 252 246 246 245 244 243 243 246 248 253 259 259 259 261 262 266 271 269 273
331 329 328 327 327 326 327 325 323 313 303 303 302 300 296 288 290 297 293 285 279 279 278 271 265 259 251 248 247 248 247 246 245 249 254 257 253 253 250 257 268 278 274
324 323 325 324 326 326 324 322 319 315 307 304 301 301 298 295 301 295 293 283 280 275 275 278 279 268 263 255 249 248 248 248 248 248 252 252 254 251 252 251 264 274 271
315 317 320 320 321 322 320 317 313 312 312 302 299 298 295 294 296 293 291 284 278 273 273 275 278 278 274 275 269 259 254 252 250 251 254 256 258 247 242 247 250 260 267
315 317 319 318 315 314 310 307 307 304 303 299 295 294 292 289 289 289 292 283 279 275 270 267 269 272 269 271 274 272 265 260 257 254 257 262 267 257 241 246 249 259 280
316 316 316 312 308 307 303 301 302 300 297 297 292 285 284 287 285 284 288 282 275 274 273 268 263 266 264 262 264 267 273 277 276 262 263 270 274 267 252 242 237 246 265
314 313 313 309 302 299 300 302 299 295 293 295 293 287 282 283 283 283 285 274 272 275 276 269 257 259 262 259 258 255 258 269 276 282 279 285 277 267 253 241 236 243 258
316 315 315 313 306 300 300 300 299 296 292 288 289 289 284 280 278 278 279 272 268 272 271 270 267 259 260 262 264 260 260 265 258 258 264 269 273 268 278 286 281 261 255
317 316 314 311 305 301 298 297 294 290 288 288 289 293 291 287 278 276 277 275 275 269 268 270 271 269 271 268 265 261 259 257 248 242 247 248 253 261 290 316 318 318 311
317 311 307 307 302 298 291 288 288 285 282 284 285 287 292 295 289 282 275 276 277 274 274 274 275 272 272 266 256 257 249 242 241 242 245 254 268 274 273 289 321 339 344
305 303 304 302 299 297 289 283 281 280 279 279 280 283 287 287 286 288 283 278 273 269 268 269 265 262 259 264 262 250 247 250 249 250 252 261 269 256 244 252 265 276 293
298 296 298 294 293 293 288 283 281 278 277 278 277 277 279 280 283 292 290 281 278 272 277 267 262 261 253 252 257 257 254 253 253 256 250 255 254 252 256 259 262 264 259
294 295 293 291 289 287 288 289 282 280 287 283 280 280 280 280 288 289 284 279 277 272 268 252 250 250 250 251 251 255 256 254 264 265 255 248 249 249 258 259 255 247 257
283 287 287 286 283 283 283 285 292 295 288 285 285 287 287 291 290 287 286 280 267 249 247 246 247 246 247 244 243 245 252 255 260 252 250 251 246 246 243 240 240 249 259
286 285 281 279 279 278 276 277 279 286 293 292 291 289 293 294 292 290 287 277 253 239 245 249 252 252 249 247 244 246 246 243 239 239 238 240 240 237 236 238 240 247 258
285 282 281 278 275 274 276 276 275 276 280 288 296 296 300 297 294 287 279 256 251 251 253 254 255 254 252 250 250 249 245 239 235 237 235 227 227 232 237 238 241 242 251
282 283 283 279 278 276 274 274 276 279 283 285 290 298 306 301 296 298 288 268 259 260 265 265 264 260 256 251 246 243 244 240 230 231 233 231 227 226 231 235 236 237 247
285 285 280 277 275 275 275 274 277 278 280 284 287 294 299 297 293 293 292 283 273 271 274 277 278 274 267 261 253 243 241 240 235 231 228 228 224 228 233 236 238 241 246
283 284 283 279 278 277 277 275 274 275 279 281 288 295 296 292 287 288 289 288 286 281 280 278 275 272 268 262 259 254 248 244 238 230 227 225 222 225 230 232 232 234 237
283 284 283 282 281 281 278 276 275 275 278 281 286 289 290 285 282 284 288 291 292 288 285 276 273 274 275 272 268 261 255 250 245 234 226 227 226 226 229 230 228 234 238
282 279 279 282 282 280 280 281 280 280 280 282 283 282 281 282 282 283 286 287 289 290 288 279 271 268 272 276 274 270 269 269 262 245 231 226 228 229 229 229 232 230 234
283 280 280 280 281 282 282 281 281 282 282 281 283 284 284 285 285 286 286 286 287 285 286 285 278 274 271 272 274 273 269 268 264 255 239 226 225 226 225 226 227 231 233
287 285 284 283 282 282 282 284 285 287 285 285 285 285 286 285 286 287 287 286 287 288 288 284 278 278 279 277 273 272 270 264 252 243 233 225 224 225 221 224 225 229 230